#�ϑ�����,���ϕ���,���ϕ���,�ő啗��,�ő啗����������,�ő�u�ԕ���,�ő�u�ԕ�����������
#(�N����),(m/s)   ,(16����),(m/s)   ,(16����)        ,(m/s)       ,(16����)            
2017/12/12 0:01,2.6,10,2.6,10,6,10
2017/12/12 0:02,2.7,10,2.7,10,4.4,10
2017/12/12 0:03,2.7,10,2.8,10,4.1,10
2017/12/12 0:04,2.8,10,2.8,10,5.2,10
2017/12/12 0:05,2.9,10,2.9,10,3.8,9
2017/12/12 0:06,2.7,10,2.9,10,4.1,9
2017/12/12 0:07,2.7,11,2.7,10,4.5,13
2017/12/12 0:08,2.6,11,2.6,10,3.3,10
2017/12/12 0:09,2.5,11,2.5,10,3,11
2017/12/12 0:10,2.3,11,2.5,10,5,9
2017/12/12 0:11,2.2,10,2.3,10,4.3,10
2017/12/12 0:12,2,11,2.2,10,3.5,9
2017/12/12 0:13,2,10,2,10,3.7,10
2017/12/12 0:14,1.9,10,2,10,2.4,9
2017/12/12 0:15,1.8,11,1.9,10,3.7,12
2017/12/12 0:16,1.9,11,1.9,10,4.5,13
2017/12/12 0:17,1.8,11,1.9,11,3.3,12
2017/12/12 0:18,1.7,11,1.8,11,3,8
2017/12/12 0:19,1.7,11,1.7,11,1.8,9
2017/12/12 0:20,1.6,11,1.7,11,2.4,10
2017/12/12 0:21,1.6,11,1.7,10,3.9,12
2017/12/12 0:22,1.9,11,1.9,10,5.4,12
2017/12/12 0:23,2,11,2,10,5.4,11
2017/12/12 0:24,2.2,11,2.2,11,3.8,10
2017/12/12 0:25,2.2,11,2.2,11,3.2,11
2017/12/12 0:26,2.2,11,2.3,11,3.1,9
2017/12/12 0:27,2.5,11,2.5,11,8.2,10
2017/12/12 0:28,2.8,11,2.8,11,7.8,12
2017/12/12 0:29,3,11,3,11,7,9
2017/12/12 0:30,3,11,3,11,2.1,8
2017/12/12 0:31,2.9,11,3,11,2.5,10
2017/12/12 0:32,2.7,10,2.8,11,2.9,11
2017/12/12 0:33,2.5,10,2.7,11,3.9,10
2017/12/12 0:34,2.5,10,2.5,11,3.7,11
2017/12/12 0:35,2.4,10,2.5,11,2.7,10
2017/12/12 0:36,2.4,10,2.4,11,2.9,9
2017/12/12 0:37,2.1,10,2.4,11,2.9,10
2017/12/12 0:38,1.8,10,2,11,2,9
2017/12/12 0:39,1.5,10,1.7,11,1.5,8
2017/12/12 0:40,1.4,10,1.5,11,1.5,10
2017/12/12 0:41,1.4,10,1.4,11,0.8,10
2017/12/12 0:42,1.3,10,1.4,10,2.2,9
2017/12/12 0:43,1.2,10,1.3,10,2.5,10
2017/12/12 0:44,1.1,10,1.2,10,3.1,9
2017/12/12 0:45,1,10,1.1,10,3.1,10
2017/12/12 0:46,1.1,10,1.1,10,2.4,9
2017/12/12 0:47,1.1,10,1.1,10,2.9,11
2017/12/12 0:48,1.1,10,1.1,10,2.7,9
2017/12/12 0:49,1.1,10,1.1,10,2.1,9
2017/12/12 0:50,1.1,9,1.1,10,0.9,9
2017/12/12 0:51,1.1,10,1.1,10,2.1,10
2017/12/12 0:52,1.2,10,1.2,10,3.1,10
2017/12/12 0:53,1.3,10,1.3,10,3,11
2017/12/12 0:54,1.3,10,1.3,10,3.8,10
2017/12/12 0:55,1.3,10,1.4,10,3,9
2017/12/12 0:56,1.3,10,1.3,10,2.2,10
2017/12/12 0:57,1.2,10,1.3,10,1.9,9
2017/12/12 0:58,1.2,10,1.2,10,1.8,11
2017/12/12 0:59,1.3,10,1.3,10,1.6,12
2017/12/12 1:00,1.3,10,1.3,10,1.6,11
2017/12/12 1:01,1.2,10,1.3,10,1.3,8
2017/12/12 1:02,1.2,10,1.2,10,3.5,9
2017/12/12 1:03,1.1,10,1.2,10,2.4,9
2017/12/12 1:04,1,10,1.1,10,1.5,11
2017/12/12 1:05,1,10,1,10,1.4,12
2017/12/12 1:06,1,10,1,10,2.5,9
2017/12/12 1:07,1,10,1,10,1.6,12
2017/12/12 1:08,1,10,1,10,1.8,11
2017/12/12 1:09,1,10,1,10,1.8,9
2017/12/12 1:10,1,10,1,10,1.5,11
2017/12/12 1:11,1.1,10,1.1,10,1.9,11
2017/12/12 1:12,1.1,11,1.1,10,1.8,11
2017/12/12 1:13,1.1,11,1.1,10,1.8,11
2017/12/12 1:14,1.2,11,1.2,11,2.7,11
2017/12/12 1:15,1.2,11,1.2,11,2.5,11
2017/12/12 1:16,1.3,11,1.3,11,1.6,10
2017/12/12 1:17,1.2,11,1.3,11,1.4,10
2017/12/12 1:18,1.1,10,1.2,11,1.5,10
2017/12/12 1:19,1.1,11,1.1,11,1.1,10
2017/12/12 1:20,1,10,1.1,11,0.4,9
2017/12/12 1:21,0.9,11,1,11,0.6,12
2017/12/12 1:22,0.8,11,0.9,11,1.5,13
2017/12/12 1:23,0.7,11,0.8,11,0.8,16
2017/12/12 1:24,0.7,11,0.7,11,1.3,15
2017/12/12 1:25,0.6,11,0.7,11,1.3,11
2017/12/12 1:26,0.6,11,0.6,11,2,12
2017/12/12 1:27,0.7,12,0.7,11,4.2,10
2017/12/12 1:28,0.9,12,0.9,10,3.7,10
2017/12/12 1:29,0.9,12,0.9,11,1.9,7
2017/12/12 1:30,1.1,12,1.1,12,2.5,10
2017/12/12 1:31,1.3,12,1.3,12,4.2,11
2017/12/12 1:32,1.4,12,1.4,12,3.9,12
2017/12/12 1:33,1.4,12,1.5,12,1.6,11
2017/12/12 1:34,1.5,12,1.5,12,2.4,12
2017/12/12 1:35,1.4,12,1.5,12,1.4,13
2017/12/12 1:36,1.5,12,1.5,12,2.2,12
2017/12/12 1:37,1.4,12,1.5,12,3.8,12
2017/12/12 1:38,1.3,12,1.4,12,1.9,14
2017/12/12 1:39,1.4,12,1.4,12,3.3,13
2017/12/12 1:40,1.4,12,1.4,12,4.2,13
2017/12/12 1:41,1.5,12,1.5,12,6,13
2017/12/12 1:42,1.4,12,1.4,12,3.7,9
2017/12/12 1:43,1.6,12,1.6,12,6.3,9
2017/12/12 1:44,1.7,12,1.7,12,5.1,12
2017/12/12 1:45,1.9,11,1.9,11,3.3,9
2017/12/12 1:46,1.9,11,1.9,11,2.5,10
2017/12/12 1:47,1.8,11,1.9,11,2.2,10
2017/12/12 1:48,1.8,11,1.9,11,3.5,13
2017/12/12 1:49,1.9,11,1.9,11,3.7,11
2017/12/12 1:50,1.9,11,1.9,11,3.7,13
2017/12/12 1:51,1.7,11,1.9,11,2.4,10
2017/12/12 1:52,1.7,12,1.7,11,1.8,14
2017/12/12 1:53,1.4,11,1.6,11,1.8,10
2017/12/12 1:54,1.3,11,1.3,11,3.2,12
2017/12/12 1:55,1.3,11,1.3,11,2.6,13
2017/12/12 1:56,1.2,12,1.3,11,3.2,9
2017/12/12 1:57,1.3,12,1.3,11,4.8,12
2017/12/12 1:58,1.4,11,1.4,11,3.9,13
2017/12/12 1:59,1.5,11,1.5,11,3.9,11
2017/12/12 2:00,1.5,12,1.5,11,4.4,10
2017/12/12 2:01,1.6,11,1.6,11,3,12
2017/12/12 2:02,1.7,11,1.7,11,4.3,11
2017/12/12 2:03,1.9,11,1.9,11,5.1,9
2017/12/12 2:04,1.9,11,2,11,3.9,9
2017/12/12 2:05,2.1,11,2.1,11,5,10
2017/12/12 2:06,2.2,11,2.2,11,6.2,10
2017/12/12 2:07,2.1,11,2.3,11,2,11
2017/12/12 2:08,1.9,11,2.1,11,2.4,9
2017/12/12 2:09,1.9,11,1.9,11,3.9,13
2017/12/12 2:10,1.8,11,1.9,11,3,13
2017/12/12 2:11,1.8,11,1.8,11,1.9,11
2017/12/12 2:12,1.8,11,1.8,11,3.1,13
2017/12/12 2:13,1.6,11,1.7,11,2.5,12
2017/12/12 2:14,1.5,11,1.6,11,2.7,11
2017/12/12 2:15,1.5,11,1.6,11,4.7,11
2017/12/12 2:16,1.4,11,1.5,11,4.3,13
2017/12/12 2:17,1.4,12,1.4,11,4.9,13
2017/12/12 2:18,1.7,12,1.7,11,5.5,14
2017/12/12 2:19,1.6,12,1.7,11,3.8,14
2017/12/12 2:20,1.6,12,1.6,11,3.9,11
2017/12/12 2:21,1.9,12,1.9,12,6.8,12
2017/12/12 2:22,1.9,12,1.9,12,3.5,13
2017/12/12 2:23,2,12,2,12,3.9,13
2017/12/12 2:24,2.1,12,2.1,12,3.3,11
2017/12/12 2:25,2.1,12,2.1,12,5.6,10
2017/12/12 2:26,2.1,12,2.1,12,5.6,14
2017/12/12 2:27,2.1,12,2.1,12,3,8
2017/12/12 2:28,1.9,12,2,12,3.7,10
2017/12/12 2:29,2.1,12,2.1,12,6.5,11
2017/12/12 2:30,2.3,12,2.3,12,5,10
2017/12/12 2:31,2.1,11,2.3,12,4.3,10
2017/12/12 2:32,2.2,12,2.2,12,6,13
2017/12/12 2:33,2.3,12,2.3,12,5.1,13
2017/12/12 2:34,2.3,12,2.3,12,3.7,13
2017/12/12 2:35,2.2,12,2.3,12,4.4,9
2017/12/12 2:36,2.3,12,2.3,12,4.4,13
2017/12/12 2:37,2.4,12,2.4,12,3.9,9
2017/12/12 2:38,2.4,12,2.4,12,3.8,11
2017/12/12 2:39,2.2,12,2.3,12,2.9,10
2017/12/12 2:40,2,12,2.1,12,3.6,13
2017/12/12 2:41,2.1,12,2.1,12,4.9,14
2017/12/12 2:42,2,12,2.1,12,3.2,11
2017/12/12 2:43,1.8,12,2,12,2.5,6
2017/12/12 2:44,1.7,12,1.8,12,2.9,10
2017/12/12 2:45,1.7,12,1.8,12,3.2,13
2017/12/12 2:46,1.7,12,1.7,12,5.8,12
2017/12/12 2:47,1.7,12,1.8,12,6.7,13
2017/12/12 2:48,2,12,2,12,8.1,13
2017/12/12 2:49,2.2,12,2.2,12,7.7,12
2017/12/12 2:50,2.3,12,2.3,12,4.2,14
2017/12/12 2:51,2.3,12,2.3,12,5.6,11
2017/12/12 2:52,2.5,12,2.5,12,5.5,12
2017/12/12 2:53,2.7,13,2.7,12,6.2,12
2017/12/12 2:54,2.9,13,2.9,13,5.2,12
2017/12/12 2:55,3.1,13,3.1,13,5.7,12
2017/12/12 2:56,3.1,13,3.1,13,5.2,12
2017/12/12 2:57,3.1,13,3.2,13,6.7,13
2017/12/12 2:58,3.1,13,3.2,13,4.4,13
2017/12/12 2:59,3.1,13,3.1,13,5.1,13
2017/12/12 3:00,3.1,13,3.2,13,6.1,13
2017/12/12 3:01,3,13,3.1,13,5.2,15
2017/12/12 3:02,3,13,3,13,4.9,12
2017/12/12 3:03,2.9,13,3,13,4.3,12
2017/12/12 3:04,2.8,13,2.9,13,5.5,12
2017/12/12 3:05,2.8,13,2.8,13,5.5,13
2017/12/12 3:06,2.7,13,2.8,13,2.7,12
2017/12/12 3:07,2.5,13,2.6,13,2.6,12
2017/12/12 3:08,2.3,13,2.5,13,3.2,12
2017/12/12 3:09,2,13,2.3,13,2.2,13
2017/12/12 3:10,2,13,2,13,4.2,12
2017/12/12 3:11,2,13,2,13,3.9,13
2017/12/12 3:12,2,13,2.1,13,3.7,12
2017/12/12 3:13,1.9,13,1.9,13,3.6,10
2017/12/12 3:14,1.8,12,1.9,13,2.7,10
2017/12/12 3:15,1.6,12,1.8,13,2.4,9
2017/12/12 3:16,1.7,12,1.7,13,3.9,11
2017/12/12 3:17,1.7,12,1.7,13,3.3,11
2017/12/12 3:18,1.7,12,1.7,13,4.9,12
2017/12/12 3:19,1.9,12,1.9,13,4.7,12
2017/12/12 3:20,1.7,12,1.9,13,3.9,13
2017/12/12 3:21,1.7,12,1.7,13,2.9,9
2017/12/12 3:22,1.6,12,1.7,13,3,12
2017/12/12 3:23,1.6,11,1.6,12,2.7,10
2017/12/12 3:24,1.6,12,1.6,12,4.2,13
2017/12/12 3:25,1.6,12,1.7,12,2.6,9
2017/12/12 3:26,1.6,12,1.7,12,3.1,9
2017/12/12 3:27,1.6,12,1.6,12,2.5,11
2017/12/12 3:28,1.4,12,1.6,12,3.7,10
2017/12/12 3:29,1.4,12,1.4,12,3.2,11
2017/12/12 3:30,1.4,11,1.4,12,3.1,13
2017/12/12 3:31,1.4,11,1.5,12,3.6,12
2017/12/12 3:32,1.4,11,1.5,12,3.8,11
2017/12/12 3:33,1.4,11,1.4,12,2.5,11
2017/12/12 3:34,1.5,11,1.5,12,4.4,10
2017/12/12 3:35,1.7,11,1.7,12,5,11
2017/12/12 3:36,1.7,11,1.7,11,3.7,10
2017/12/12 3:37,1.8,11,1.8,11,3.5,10
2017/12/12 3:38,1.9,11,1.9,11,3,10
2017/12/12 3:39,2,11,2,11,3.6,9
2017/12/12 3:40,1.9,10,2,11,1.6,10
2017/12/12 3:41,1.9,11,1.9,11,3.9,11
2017/12/12 3:42,1.9,11,1.9,11,3.9,12
2017/12/12 3:43,1.9,11,1.9,11,2.9,10
2017/12/12 3:44,1.7,10,1.9,11,2.6,9
2017/12/12 3:45,1.7,10,1.7,11,3.9,10
2017/12/12 3:46,1.6,10,1.7,11,3.1,9
2017/12/12 3:47,1.6,10,1.6,11,2.7,10
2017/12/12 3:48,1.5,11,1.6,11,3.9,12
2017/12/12 3:49,1.5,11,1.5,11,3.6,10
2017/12/12 3:50,1.5,11,1.5,10,2.7,12
2017/12/12 3:51,1.4,11,1.5,10,1.6,9
2017/12/12 3:52,1.4,11,1.4,11,3.5,13
2017/12/12 3:53,1.4,11,1.4,11,2.7,8
2017/12/12 3:54,1.5,11,1.5,10,3.3,12
2017/12/12 3:55,1.5,11,1.5,10,4.5,11
2017/12/12 3:56,1.6,11,1.6,10,4.7,11
2017/12/12 3:57,1.5,11,1.6,10,1.9,11
2017/12/12 3:58,1.5,11,1.5,11,2.7,11
2017/12/12 3:59,1.5,11,1.5,11,3.2,12
2017/12/12 4:00,1.6,11,1.6,11,3.7,13
2017/12/12 4:01,1.7,12,1.7,12,4.2,14
2017/12/12 4:02,1.8,12,1.8,11,5.2,13
2017/12/12 4:03,1.8,12,1.8,11,2.6,14
2017/12/12 4:04,1.8,12,1.8,11,3.5,13
2017/12/12 4:05,1.8,12,1.8,11,3.3,11
2017/12/12 4:06,1.6,12,1.7,11,1.5,13
2017/12/12 4:07,1.6,12,1.6,11,3.5,13
2017/12/12 4:08,1.5,12,1.6,11,1,9
2017/12/12 4:09,1.5,12,1.6,11,3.6,13
2017/12/12 4:10,1.6,12,1.6,11,3.2,12
2017/12/12 4:11,1.5,12,1.5,11,3.2,13
2017/12/12 4:12,1.4,12,1.5,12,2.6,13
2017/12/12 4:13,1.4,12,1.4,12,2.6,13
2017/12/12 4:14,1.4,12,1.4,12,3.2,12
2017/12/12 4:15,1.4,12,1.4,12,3.5,11
2017/12/12 4:16,1.5,12,1.5,12,3.6,12
2017/12/12 4:17,1.5,11,1.5,12,4.4,9
2017/12/12 4:18,1.7,11,1.7,11,4.5,9
2017/12/12 4:19,1.6,11,1.7,11,3.5,9
2017/12/12 4:20,1.7,11,1.7,11,3,9
2017/12/12 4:21,1.5,11,1.7,11,2.5,12
2017/12/12 4:22,1.6,11,1.6,11,3.2,10
2017/12/12 4:23,1.7,11,1.7,11,3.5,13
2017/12/12 4:24,1.8,11,1.8,11,5,9
2017/12/12 4:25,1.9,11,1.9,11,6.2,9
2017/12/12 4:26,2.2,10,2.2,10,6.4,11
2017/12/12 4:27,2.2,10,2.2,10,4.5,10
2017/12/12 4:28,2.3,10,2.3,10,6.5,10
2017/12/12 4:29,2.6,10,2.6,10,6.5,9
2017/12/12 4:30,2.6,10,2.6,10,4.1,12
2017/12/12 4:31,3.2,11,3.2,11,11.6,13
2017/12/12 4:32,3.2,11,3.3,11,6.2,14
2017/12/12 4:33,3.4,11,3.4,11,6.3,15
2017/12/12 4:34,3.3,11,3.4,11,4.9,11
2017/12/12 4:35,3.4,11,3.4,11,5.8,12
2017/12/12 4:36,3.2,12,3.3,11,3.3,11
2017/12/12 4:37,3.1,12,3.2,11,3.2,10
2017/12/12 4:38,2.9,12,3.1,11,3,13
2017/12/12 4:39,2.7,12,2.9,11,4.9,12
2017/12/12 4:40,2.8,12,2.8,11,3.7,12
2017/12/12 4:41,2.1,12,2.7,11,5.6,8
2017/12/12 4:42,2.2,12,2.2,11,5.4,10
2017/12/12 4:43,2,12,2.2,11,4.9,10
2017/12/12 4:44,1.9,12,2,11,1.5,9
2017/12/12 4:45,1.7,12,1.9,11,3.1,8
2017/12/12 4:46,1.6,12,1.7,12,2,1
2017/12/12 4:47,1.5,12,1.6,12,5.1,11
2017/12/12 4:48,1.8,12,1.8,12,6.3,13
2017/12/12 4:49,2,11,2,12,8.4,10
2017/12/12 4:50,2.2,11,2.2,12,7.6,12
2017/12/12 4:51,2.4,11,2.4,11,7.4,9
2017/12/12 4:52,2.4,11,2.5,11,4.7,9
2017/12/12 4:53,2.4,10,2.4,11,5.5,9
2017/12/12 4:54,2.6,10,2.6,10,5.4,9
2017/12/12 4:55,2.8,10,2.8,10,6.2,10
2017/12/12 4:56,3.3,10,3.3,10,10.8,10
2017/12/12 4:57,3.6,10,3.6,10,9.1,10
2017/12/12 4:58,3.6,10,3.7,10,9,9
2017/12/12 4:59,3.3,10,3.6,10,4.3,12
2017/12/12 5:00,3.3,10,3.4,10,6.7,10
2017/12/12 5:01,3.1,10,3.3,10,5.4,10
2017/12/12 5:02,3.2,10,3.2,10,6.4,12
2017/12/12 5:03,3.2,10,3.2,10,4.4,10
2017/12/12 5:04,3.2,10,3.2,10,4.3,10
2017/12/12 5:05,3.1,10,3.2,10,6.7,11
2017/12/12 5:06,3,10,3.2,10,7.5,9
2017/12/12 5:07,3,10,3,10,7.1,10
2017/12/12 5:08,2.9,10,3.1,10,5.4,9
2017/12/12 5:09,3,10,3,10,7.7,10
2017/12/12 5:10,3,10,3,10,6.8,12
2017/12/12 5:11,3.3,10,3.3,10,9.4,11
2017/12/12 5:12,3.5,10,3.5,10,6.8,10
2017/12/12 5:13,3.5,10,3.5,10,5.2,9
2017/12/12 5:14,3.5,10,3.5,10,4.7,9
2017/12/12 5:15,3.5,10,3.5,10,5.7,11
2017/12/12 5:16,3.4,10,3.5,10,8.4,13
2017/12/12 5:17,3.4,10,3.5,10,9.9,9
2017/12/12 5:18,3.5,10,3.5,10,6.8,12
2017/12/12 5:19,3.5,10,3.5,10,7.1,10
2017/12/12 5:20,3.4,10,3.5,10,8.9,10
2017/12/12 5:21,3.4,10,3.4,10,7.6,9
2017/12/12 5:22,3.5,10,3.5,10,7.4,9
2017/12/12 5:23,3.4,10,3.5,10,5,8
2017/12/12 5:24,3.5,10,3.5,10,5,9
2017/12/12 5:25,3.5,10,3.5,10,4.4,9
2017/12/12 5:26,3.3,10,3.4,10,4.1,9
2017/12/12 5:27,3.2,10,3.3,10,5.7,9
2017/12/12 5:28,3.1,10,3.2,10,4.9,9
2017/12/12 5:29,3.1,10,3.1,10,5.8,10
2017/12/12 5:30,3.2,9,3.2,10,6.1,10
2017/12/12 5:31,3,10,3.2,10,6.7,9
2017/12/12 5:32,2.9,10,3,10,6.5,8
2017/12/12 5:33,3,9,3,10,7.9,9
2017/12/12 5:34,3.1,10,3.1,10,6.3,9
2017/12/12 5:35,3.2,10,3.2,10,6.1,9
2017/12/12 5:36,3.4,9,3.4,9,6.5,9
2017/12/12 5:37,3.4,9,3.4,9,8.4,9
2017/12/12 5:38,3.5,9,3.5,9,6.4,9
2017/12/12 5:39,3.5,9,3.6,9,8.1,10
2017/12/12 5:40,3.5,9,3.5,9,5.6,10
2017/12/12 5:41,3.4,9,3.6,9,4.2,9
2017/12/12 5:42,3.2,9,3.4,9,5.2,8
2017/12/12 5:43,3.1,9,3.2,9,5.5,10
2017/12/12 5:44,3,9,3.1,9,4.8,9
2017/12/12 5:45,2.9,9,3,9,5.1,10
2017/12/12 5:46,2.9,10,3,9,6.9,10
2017/12/12 5:47,2.7,10,2.9,9,4.2,8
2017/12/12 5:48,2.7,9,2.7,9,7.1,9
2017/12/12 5:49,2.6,10,2.7,9,7.1,8
2017/12/12 5:50,2.5,9,2.7,9,4.7,9
2017/12/12 5:51,2.7,9,2.7,9,4.9,10
2017/12/12 5:52,2.6,10,2.7,9,4.9,10
2017/12/12 5:53,2.6,9,2.7,9,5.1,9
2017/12/12 5:54,2.6,9,2.7,9,4.8,9
2017/12/12 5:55,2.5,9,2.6,10,4.7,10
2017/12/12 5:56,2.3,9,2.5,9,4.8,10
2017/12/12 5:57,2.3,9,2.3,10,3.9,8
2017/12/12 5:58,2.4,9,2.4,9,4.9,9
2017/12/12 5:59,2.2,9,2.3,10,3.7,8
2017/12/12 6:00,2.3,9,2.3,9,5,9
2017/12/12 6:01,2.2,9,2.3,9,5.2,10
2017/12/12 6:02,2.4,9,2.4,10,5,9
2017/12/12 6:03,2.4,9,2.4,9,5,10
2017/12/12 6:04,2.5,9,2.5,9,6.3,10
2017/12/12 6:05,2.6,9,2.6,9,5.4,9
2017/12/12 6:06,2.7,9,2.7,9,5.6,10
2017/12/12 6:07,3,9,3,9,6,9
2017/12/12 6:08,3,9,3,9,6.1,10
2017/12/12 6:09,3.1,9,3.1,9,5.2,8
2017/12/12 6:10,3.1,9,3.1,9,5.5,9
2017/12/12 6:11,3.2,9,3.2,9,5.1,9
2017/12/12 6:12,3.2,9,3.2,9,5.4,9
2017/12/12 6:13,3.2,9,3.2,9,4.5,8
2017/12/12 6:14,3.1,9,3.1,9,4.2,10
2017/12/12 6:15,3,9,3.1,9,4.2,9
2017/12/12 6:16,3,9,3,9,4.9,9
2017/12/12 6:17,2.8,9,3,9,4.9,9
2017/12/12 6:18,2.7,9,2.8,9,4.2,9
2017/12/12 6:19,2.7,9,2.8,9,4.1,9
2017/12/12 6:20,2.6,9,2.7,9,3.1,10
2017/12/12 6:21,2.4,9,2.6,9,3.1,9
2017/12/12 6:22,2.1,9,2.4,9,2.1,9
2017/12/12 6:23,2.1,9,2.1,9,3.7,8
2017/12/12 6:24,2.1,9,2.2,9,3.8,9
2017/12/12 6:25,2,10,2.1,9,2.7,11
2017/12/12 6:26,1.9,10,2,9,2.7,10
2017/12/12 6:27,1.8,10,1.9,9,2,10
2017/12/12 6:28,1.6,10,1.8,9,1.8,9
2017/12/12 6:29,1.4,10,1.6,9,1.8,10
2017/12/12 6:30,1.4,10,1.4,9,1.5,8
2017/12/12 6:31,1.3,10,1.4,9,1.3,8
2017/12/12 6:32,1.2,10,1.3,9,0.8,8
2017/12/12 6:33,1.1,10,1.2,9,2,8
2017/12/12 6:34,1,9,1.1,9,2.1,9
2017/12/12 6:35,0.9,9,1,10,1.4,7
2017/12/12 6:36,0.9,9,0.9,10,1.9,9
2017/12/12 6:37,0.8,9,0.9,10,1.4,7
2017/12/12 6:38,0.8,8,0.8,10,1.4,9
2017/12/12 6:39,0.9,8,0.9,10,2.6,9
2017/12/12 6:40,0.9,8,0.9,10,2.4,9
2017/12/12 6:41,1,8,1,10,2.1,10
2017/12/12 6:42,1.1,8,1.1,10,2,10
2017/12/12 6:43,1.1,9,1.1,10,1.6,9
2017/12/12 6:44,1,9,1.1,8,1.6,8
2017/12/12 6:45,1.1,9,1.1,8,1.6,8
2017/12/12 6:46,1,9,1.1,8,1.5,9
2017/12/12 6:47,1,9,1,8,0.6,8
2017/12/12 6:48,1,9,1,8,1.4,9
2017/12/12 6:49,0.9,9,1,8,1.1,9
2017/12/12 6:50,0.8,9,0.9,8,1.3,9
2017/12/12 6:51,0.7,9,0.8,8,1.4,9
2017/12/12 6:52,0.7,9,0.7,8,0.8,9
2017/12/12 6:53,0.5,9,0.6,9,0.1,9
2017/12/12 6:54,0.5,10,0.5,9,0.1,11
2017/12/12 6:55,0.4,10,0.4,9,1,16
2017/12/12 6:56,0.3,11,0.4,9,1,16
2017/12/12 6:57,0.4,11,0.4,9,1.5,16
2017/12/12 6:58,0.4,12,0.4,9,1.3,15
2017/12/12 6:59,0.4,13,0.4,9,1,15
2017/12/12 7:00,0.4,14,0.4,9,0.8,15
2017/12/12 7:01,0.4,15,0.4,9,0.8,16
2017/12/12 7:02,0.4,15,0.4,9,0,15
2017/12/12 7:03,0.4,15,0.4,9,0,14
2017/12/12 7:04,0.4,15,0.4,10,0.3,14
2017/12/12 7:05,0.3,15,0.4,10,0.3,14
2017/12/12 7:06,0.3,15,0.4,11,0.3,14
2017/12/12 7:07,0.3,15,0.3,11,1,15
2017/12/12 7:08,0.3,15,0.3,12,1,16
2017/12/12 7:09,0.3,15,0.3,13,1.1,16
2017/12/12 7:10,0.3,15,0.3,14,1.1,16
2017/12/12 7:11,0.3,15,0.3,15,0.9,16
2017/12/12 7:12,0.3,15,0.3,15,0.9,16
2017/12/12 7:13,0.4,16,0.4,15,1.3,1
2017/12/12 7:14,0.5,16,0.5,16,1.5,16
2017/12/12 7:15,0.5,16,0.5,16,0.9,16
2017/12/12 7:16,0.5,16,0.5,16,0.6,16
2017/12/12 7:17,0.5,16,0.5,16,0.4,15
2017/12/12 7:18,0.5,16,0.5,16,0.3,16
2017/12/12 7:19,0.4,16,0.5,16,0.1,2
2017/12/12 7:20,0.3,16,0.4,16,0.3,1
2017/12/12 7:21,0.3,1,0.3,16,0.5,4
2017/12/12 7:22,0.3,1,0.3,16,0.4,1
2017/12/12 7:23,0.2,1,0.3,16,0.5,2
2017/12/12 7:24,0.2,1,0.2,16,0.9,2
2017/12/12 7:25,0.2,1,0.2,16,1.1,1
2017/12/12 7:26,0.2,1,0.2,16,1,1
2017/12/12 7:27,0.2,1,0.2,16,0.9,15
2017/12/12 7:28,0.3,1,0.3,16,1,3
2017/12/12 7:29,0.4,1,0.4,16,1,3
2017/12/12 7:30,0.4,1,0.4,1,0.8,2
2017/12/12 7:31,0.4,1,0.4,1,0.8,3
2017/12/12 7:32,0.4,1,0.4,1,0.6,16
2017/12/12 7:33,0.4,1,0.4,1,0.9,1
2017/12/12 7:34,0.4,1,0.4,1,1,16
2017/12/12 7:35,0.4,1,0.4,1,0.5,16
2017/12/12 7:36,0.3,1,0.4,1,0.3,16
2017/12/12 7:37,0.3,1,0.3,1,0,16
2017/12/12 7:38,0.2,1,0.3,1,0.1,12
2017/12/12 7:39,0.2,16,0.2,1,0.1,11
2017/12/12 7:40,0.1,15,0.2,1,0.1,12
2017/12/12 7:41,0.1,15,0.1,1,0,13
2017/12/12 7:42,0.1,14,0.1,1,0,13
2017/12/12 7:43,0.1,14,0.1,1,0,14
2017/12/12 7:44,0,14,0.1,1,0.1,12
2017/12/12 7:45,0,13,0,1,1,10
2017/12/12 7:46,0.1,12,0.1,1,0.8,10
2017/12/12 7:47,0.1,12,0.1,1,0.6,9
2017/12/12 7:48,0.1,12,0.1,1,0.3,10
2017/12/12 7:49,0.1,11,0.1,16,0.3,16
2017/12/12 7:50,0.1,11,0.1,15,0.3,9
2017/12/12 7:51,0.1,11,0.1,15,0.5,6
2017/12/12 7:52,0.2,10,0.2,10,1.5,9
2017/12/12 7:53,0.2,10,0.2,10,1.1,10
2017/12/12 7:54,0.3,9,0.3,10,0.9,8
2017/12/12 7:55,0.3,9,0.3,10,0.8,7
2017/12/12 7:56,0.3,9,0.3,10,1,7
2017/12/12 7:57,0.3,9,0.3,10,0.9,9
2017/12/12 7:58,0.4,9,0.4,9,1.3,8
2017/12/12 7:59,0.5,9,0.5,9,1.5,9
2017/12/12 8:00,0.5,9,0.5,9,1.3,11
2017/12/12 8:01,0.6,9,0.6,9,2.2,9
2017/12/12 8:02,0.6,9,0.7,9,1.4,10
2017/12/12 8:03,0.7,9,0.7,9,2.1,9
2017/12/12 8:04,0.8,9,0.8,9,1.8,9
2017/12/12 8:05,0.8,9,0.8,9,1,11
2017/12/12 8:06,0.8,9,0.8,9,1.3,9
2017/12/12 8:07,0.9,10,0.9,10,1.8,10
2017/12/12 8:08,0.8,10,0.9,10,1.1,11
2017/12/12 8:09,0.8,10,0.9,10,1.1,10
2017/12/12 8:10,0.8,10,0.8,10,1.3,9
2017/12/12 8:11,0.7,10,0.8,10,1.1,8
2017/12/12 8:12,0.6,10,0.7,10,1.4,8
2017/12/12 8:13,0.5,10,0.6,10,1.4,9
2017/12/12 8:14,0.4,10,0.5,10,0.3,9
2017/12/12 8:15,0.4,9,0.4,10,0.4,12
2017/12/12 8:16,0.4,10,0.4,10,0.6,12
2017/12/12 8:17,0.3,10,0.4,10,0.1,12
2017/12/12 8:18,0.2,10,0.3,10,0.1,16
2017/12/12 8:19,0.2,11,0.2,10,0.1,5
2017/12/12 8:20,0.1,10,0.2,10,0.4,10
2017/12/12 8:21,0.1,10,0.1,10,0.3,10
2017/12/12 8:22,0.1,10,0.1,10,0,8
2017/12/12 8:23,0,11,0.1,10,0.3,9
2017/12/12 8:24,0,11,0,10,0.8,9
2017/12/12 8:25,0.1,10,0.1,10,0.8,7
2017/12/12 8:26,0.1,10,0.1,10,0.4,8
2017/12/12 8:27,0.1,10,0.1,10,0.4,12
2017/12/12 8:28,0.1,9,0.1,10,0.9,8
2017/12/12 8:29,0.2,9,0.2,11,0.9,8
2017/12/12 8:30,0.3,8,0.3,9,2,9
2017/12/12 8:31,0.4,8,0.4,8,1.9,7
2017/12/12 8:32,0.5,8,0.5,8,1.3,7
2017/12/12 8:33,0.6,8,0.6,8,1.4,9
2017/12/12 8:34,0.7,8,0.7,8,2,8
2017/12/12 8:35,0.8,8,0.8,8,1.9,9
2017/12/12 8:36,0.8,9,0.8,8,2.4,9
2017/12/12 8:37,1,8,1,9,1.9,9
2017/12/12 8:38,1,8,1,9,2.1,8
2017/12/12 8:39,1,9,1,9,1.1,8
2017/12/12 8:40,1,9,1,9,1.6,8
2017/12/12 8:41,0.9,9,1,9,1.1,8
2017/12/12 8:42,0.9,9,0.9,9,1.1,9
2017/12/12 8:43,0.9,9,0.9,9,1.4,9
2017/12/12 8:44,0.8,9,0.9,9,1.1,9
2017/12/12 8:45,0.8,9,0.8,9,2,11
2017/12/12 8:46,0.8,9,0.8,9,1.9,10
2017/12/12 8:47,0.8,10,0.8,8,1.8,11
2017/12/12 8:48,0.8,10,0.8,8,2.1,11
2017/12/12 8:49,1,10,1,9,2.4,10
2017/12/12 8:50,1,10,1,9,2,10
2017/12/12 8:51,1.1,10,1.1,10,2,10
2017/12/12 8:52,1,10,1.1,10,0.9,8
2017/12/12 8:53,0.9,11,1,10,0.8,11
2017/12/12 8:54,0.9,11,0.9,10,0.9,9
2017/12/12 8:55,0.9,11,0.9,10,1.4,9
2017/12/12 8:56,0.9,11,0.9,10,1.6,9
2017/12/12 8:57,0.9,10,0.9,10,1.8,9
2017/12/12 8:58,0.8,10,0.8,10,1.3,10
2017/12/12 8:59,0.7,10,0.8,10,1.1,10
2017/12/12 9:00,0.6,10,0.7,10,1.3,10
2017/12/12 9:01,0.6,10,0.6,10,1,9
2017/12/12 9:02,0.6,10,0.6,10,0.8,9
2017/12/12 9:03,0.6,10,0.6,11,0.9,10
2017/12/12 9:04,0.6,10,0.6,11,0.1,1
2017/12/12 9:05,0.6,10,0.6,11,0.9,10
2017/12/12 9:06,0.6,10,0.6,11,0.9,11
2017/12/12 9:07,0.5,10,0.6,10,0.9,10
2017/12/12 9:08,0.4,10,0.5,10,0.3,11
2017/12/12 9:09,0.4,11,0.4,10,0.6,16
2017/12/12 9:10,0.3,11,0.4,10,0.4,16
2017/12/12 9:11,0.3,12,0.3,10,0.1,15
2017/12/12 9:12,0.3,12,0.3,10,1.5,13
2017/12/12 9:13,0.4,13,0.4,10,1.8,13
2017/12/12 9:14,0.5,13,0.5,10,1.8,12
2017/12/12 9:15,0.6,13,0.6,10,1.4,12
2017/12/12 9:16,0.7,13,0.7,13,2.2,13
2017/12/12 9:17,0.8,13,0.8,13,2.5,13
2017/12/12 9:18,1,13,1,13,2,13
2017/12/12 9:19,1.1,13,1.1,13,2,14
2017/12/12 9:20,1.1,13,1.1,13,1.6,10
2017/12/12 9:21,1.2,12,1.2,13,1,10
2017/12/12 9:22,1.1,12,1.2,13,0.9,13
2017/12/12 9:23,1.1,12,1.1,13,2.2,11
2017/12/12 9:24,1.1,12,1.1,13,2.7,10
2017/12/12 9:25,1.1,12,1.1,13,2.4,10
2017/12/12 9:26,1.1,11,1.1,13,2.6,10
2017/12/12 9:27,1.1,11,1.1,13,2.1,9
2017/12/12 9:28,1,11,1,13,1.8,12
2017/12/12 9:29,1,11,1,13,2,11
2017/12/12 9:30,1,11,1,13,2.2,12
2017/12/12 9:31,1.1,11,1.1,12,1.9,10
2017/12/12 9:32,1.1,11,1.1,12,1.8,8
2017/12/12 9:33,1.1,11,1.1,12,1.5,12
2017/12/12 9:34,1,11,1.1,12,1.8,11
2017/12/12 9:35,1.1,11,1.1,12,2.7,10
2017/12/12 9:36,0.9,11,1.1,11,1.5,7
2017/12/12 9:37,1,11,1,11,2.1,10
2017/12/12 9:38,1,11,1,11,2.6,10
2017/12/12 9:39,1.1,11,1.1,11,3.3,9
2017/12/12 9:40,1.2,11,1.2,11,2.7,10
2017/12/12 9:41,1.2,11,1.2,11,2.7,12
2017/12/12 9:42,1.4,10,1.4,11,3.9,11
2017/12/12 9:43,1.7,10,1.7,10,5,10
2017/12/12 9:44,1.9,10,1.9,10,4.2,11
2017/12/12 9:45,2,11,2,11,3.7,9
2017/12/12 9:46,2.1,10,2.1,10,3.7,10
2017/12/12 9:47,2.3,10,2.3,10,4.3,10
2017/12/12 9:48,2.3,10,2.4,10,3.2,10
2017/12/12 9:49,2.3,10,2.3,10,3.5,11
2017/12/12 9:50,2.3,10,2.3,10,2.6,15
2017/12/12 9:51,2.4,11,2.4,10,3.7,12
2017/12/12 9:52,2.2,11,2.4,10,2.5,11
2017/12/12 9:53,2.1,11,2.3,10,3.2,10
2017/12/12 9:54,2,11,2.1,10,2.7,11
2017/12/12 9:55,1.9,11,2,10,2.7,12
2017/12/12 9:56,1.8,12,1.9,10,2,12
2017/12/12 9:57,1.6,11,1.8,10,2.5,8
2017/12/12 9:58,1.6,11,1.6,11,4.3,9
2017/12/12 9:59,1.6,11,1.7,11,3.9,10
2017/12/12 10:00,1.7,11,1.7,11,4.7,10
2017/12/12 10:01,1.8,11,1.8,11,5.8,9
2017/12/12 10:02,2.1,11,2.1,11,5.4,10
2017/12/12 10:03,1.9,11,2.1,11,3.8,10
2017/12/12 10:04,2.1,10,2.1,11,5.5,9
2017/12/12 10:05,2.2,10,2.2,10,4.7,10
2017/12/12 10:06,2.3,10,2.3,10,3.7,9
2017/12/12 10:07,2.4,10,2.4,10,3.8,10
2017/12/12 10:08,2.4,10,2.4,10,4.9,9
2017/12/12 10:09,2.5,10,2.5,10,5.2,10
2017/12/12 10:10,2.6,10,2.7,10,5,9
2017/12/12 10:11,2.5,11,2.6,10,3.3,10
2017/12/12 10:12,2.2,11,2.4,10,2.6,11
2017/12/12 10:13,2.3,11,2.3,10,1.5,8
2017/12/12 10:14,2.2,11,2.3,10,3.8,11
2017/12/12 10:15,2.2,11,2.2,10,5.7,10
2017/12/12 10:16,2.3,11,2.3,10,5,10
2017/12/12 10:17,2.4,11,2.4,10,3.3,11
2017/12/12 10:18,2.4,11,2.4,10,3.1,14
2017/12/12 10:19,2.1,11,2.3,10,2.2,14
2017/12/12 10:20,1.9,11,2.1,10,2.9,12
2017/12/12 10:21,1.9,12,1.9,11,2.7,13
2017/12/12 10:22,1.9,11,2,11,2.6,10
2017/12/12 10:23,2,11,2,11,2.6,9
2017/12/12 10:24,1.8,11,1.9,11,3.9,13
2017/12/12 10:25,1.7,12,1.9,11,4.5,12
2017/12/12 10:26,1.6,11,1.7,11,4.7,9
2017/12/12 10:27,1.6,11,1.6,11,5,8
2017/12/12 10:28,1.7,11,1.7,11,4.4,11
2017/12/12 10:29,1.8,11,1.8,11,4.2,10
2017/12/12 10:30,1.8,11,1.9,12,3.5,9
2017/12/12 10:31,1.9,10,1.9,12,4.3,10
2017/12/12 10:32,2.1,10,2.1,10,5.8,10
2017/12/12 10:33,2.2,11,2.2,11,4.1,11
2017/12/12 10:34,2.2,10,2.3,11,2.9,10
2017/12/12 10:35,2.3,11,2.3,11,3.5,14
2017/12/12 10:36,2.3,11,2.3,11,3.7,12
2017/12/12 10:37,2.3,11,2.4,11,3.6,13
2017/12/12 10:38,2.3,12,2.3,11,3.2,13
2017/12/12 10:39,2.2,12,2.3,11,3,12
2017/12/12 10:40,2.1,12,2.2,11,1.8,14
2017/12/12 10:41,2,12,2.2,11,2.5,12
2017/12/12 10:42,1.8,12,2,11,2.6,12
2017/12/12 10:43,1.7,12,1.8,11,2.2,12
2017/12/12 10:44,1.7,12,1.7,11,2.5,12
2017/12/12 10:45,1.6,12,1.7,11,3.3,13
2017/12/12 10:46,1.5,12,1.6,11,3.5,14
2017/12/12 10:47,1.3,12,1.5,11,1.8,14
2017/12/12 10:48,1.2,12,1.3,12,2.7,11